Simultaneous Nadir Overpasses (SNOs) Predictions

Prediction of SNOs between GOES-16 and NOAA-19 Satellite Orbit:

Table of predicted SNOs for the next 14.0 days since TLE Epoch: 5/11/2019
Index Date Time (GOES-16) GOES-16 Lat,Lon NOAA-19 Lat,Lon Distance(km) Time Diff (sec)
1 05/11/2019 09:32:50 0.00, -75.20 -1.00, -70.99 480.45 80
2 05/12/2019 22:05:45 -0.00, -75.19 -0.85, -78.87 420.16 80
3 05/13/2019 21:54:08 -0.00, -75.19 -0.22, -76.03 96.01 80
4 05/14/2019 21:45:11 -0.00, -75.20 0.46, -73.20 228.41 80
5 05/17/2019 10:06:12 -0.00, -75.23 0.67, -78.17 335.86 80
6 05/18/2019 09:54:35 -0.00, -75.24 0.04, -75.33 11.09 80
7 05/19/2019 09:40:18 -0.00, -75.25 -0.66, -72.50 314.12 80
8 05/21/2019 22:01:37 -0.00, -75.27 -0.54, -77.54 259.75 80
9 05/22/2019 21:52:41 -0.00, -75.28 0.16, -74.71 65.88 80
10 05/23/2019 21:41:03 -0.00, -75.30 0.80, -71.87 391.50 80




NCC Satellite Simultaneous Nadir Overpasses (SNOs) Prediction Service
